Flag for Burkina Faso Weather past 2 weeks in Koudougou, Burkina Faso

Now
95 °F

Passing clouds.


Feels Like: 101 °F
Forecast: 83 / 103 °F
Wind: 6 mph from North

Location: Ouagadougou Airport

Current Time: May 22, 2015 at 11:02:22 AM

Latest Report: May 22, 2015 at 10:00 AM


Visibility: N/A

Pressure: 29.95 "Hg

Humidity: 44%

Dew point: 70 °F

Location of KoudougouLocation

Historic Weather in Koudougou — Graph

°F

Koudougou temperature yesterday

Maximum temperature yesterday: 106 °F (at 4:00 PM)
Minimum temperature yesterday: 84 °F (at 6:00 AM)
Average temperature yesterday: 95 °F

Past Weeks' High & Low Weather Summary

 TemperatureHumidityPressure
High108 °F (May 7, 3:00 PM)83% (May 19, 12:00 AM)29.98 "Hg (May 19, 12:00 AM)
Low75 °F (May 10, 5:00 PM)13% (May 14, 3:00 PM)29.74 "Hg (May 7, 4:00 PM)
Average93 °F44%29.87 "Hg
* Reported May 7 10:00 AM — May 22 10:00 AM, Koudougou, Weather by CustomWeather, © 2015

Note: Actual official high and low records may vary slightly from our data, if they occured in-between our weather recording intervals... More about our weather records

Advertising

Koudougou weather history for previous 24 hours

 ConditionsComfort  
Time TempWeatherWind HumidityBarometerVisibility
10:00 AM
Fri, May 22
95 °FPassing clouds.6 mph44%29.95 "HgN/A
9:00 AM90 °FPassing clouds.6 mph52%29.95 "HgN/A
8:00 AM88 °FPassing clouds.8 mph55%29.95 "HgN/A
7:00 AM88 °FPartly sunny.9 mph59%29.92 "HgN/A
6:00 AM86 °FLight rain. Partly sunny.7 mph62%29.92 "HgN/A
5:00 AM86 °FLight rain. Passing clouds.7 mph59%29.92 "HgN/A
4:00 AM86 °FPassing clouds.10 mph59%29.89 "HgN/A
3:00 AM88 °FThunderstorms. Passing clouds.13 mph52%29.86 "HgN/A
1:00 AM91 °FThunderstorms. Partly cloudy.10 mph44%29.92 "Hg5 mi
12:00 AM93 °FThunderstorms. Partly cloudy.5 mph39%29.92 "HgN/A
11:00 PM
Thu, May 21
97 °FThunderstorms. Partly cloudy.2 mph25%29.92 "Hg5 mi
10:00 PM95 °FThunderstorms. Partly cloudy.14 mph34%29.95 "Hg4 mi
9:00 PM95 °FThunderstorms. Passing clouds.12 mph36%29.92 "Hg4 mi
8:00 PM99 °FThunderstorms. Passing clouds.8 mph35%29.89 "Hg4 mi
7:00 PM100 °FThunderstorms. Passing clouds.7 mph31%29.86 "HgN/A
6:00 PM102 °FPartly sunny.8 mph29%29.83 "HgN/A
5:00 PM104 °FPartly sunny.2 mph28%29.83 "HgN/A
4:00 PM106 °FPartly sunny.6 mph25%29.83 "HgN/A
3:00 PM104 °FPartly sunny.6 mph29%29.83 "HgN/A
2:00 PM102 °FSunny.3 mph31%29.86 "Hg10 mi
1:00 PM100 °FPassing clouds.8 mph35%29.89 "HgN/A
12:00 PM100 °FPassing clouds.7 mph37%29.92 "HgN/A
11:00 AM97 °FPassing clouds.8 mph39%29.95 "HgN/A
Weather by CustomWeather, © 2015

See weather overviewHow to use our weather pages